Weather History for Winona, MN

Change the Weather History Date:

Tuesday, May 7, 2013

  Actual Average Record
Temperature  
Mean Temperature 62 °F -  
Max Temperature 77 °F 75 °F 87 °F (1970)
Min Temperature 48 °F 49 °F 37 °F (1992)
Degree Days  
Heating Degree Days 2    
Growing Degree Days 12 (Base 50)    
Moisture  
Dew Point 43 °F    
Average Humidity 54    
Maximum Humidity 82    
Minimum Humidity 21    
Precipitation  
Precipitation 0.00 in - - ()
Sea Level Pressure  
Sea Level Pressure 30.02 in    
Wind  
Wind Speed 2 mph (North)    
Max Wind Speed 7 mph    
Max Gust Speed -    
Visibility 10 miles    
Events      
Averages and records for this station are not official NWS values.
T = Trace of Precipitation, MM = Missing Value Source: NWS Daily Summary

Daily Weather History Graph

Daily Weather History Graph

Search for Another Location

Airport:

Trip Planner

Search our weather history database for the weather conditions in past years. The results will help you decide how hot, cold, wet, or windy it might be!

Date:

Astronomy

May. 07, 2013 Rise Set
Actual Time 5:49 AM CDT 8:17 PM CDT
Civil Twilight 5:17 AM CDT 8:50 PM CDT
Nautical Twilight 4:36 AM CDT 9:31 PM CDT
Astronomical Twilight 3:51 AM CDT 10:17 PM CDT
Moon 4:28 AM CDT (5/7) 6:14 PM CDT (5/7)
Length of Visible Light 15h 33m
Length of Day
14h 27m
Waning Crescent, 5% of the Moon is Illuminated
May 7
Waning Crescent
May 9
New
May 17
First Quarter
May 24
Full
May 31
Last Quarter

Hourly Weather History & Observations

Time (CDT) Temp. Dew Point Humidity Pressure Visibility Wind Dir Wind Speed Gust Speed Precip Events Conditions
12:15 AM 55.4 °F 46.4 °F 72% 30.03 in 10.0 mi Calm Calm - N/A   Clear
12:36 AM 55.4 °F 46.4 °F 72% 30.04 in 10.0 mi WNW 3.5 mph - N/A   Clear
12:56 AM 53.6 °F 44.6 °F 72% 30.04 in 10.0 mi WNW 3.5 mph - N/A   Clear
1:15 AM 53.6 °F 44.6 °F 72% 30.04 in 10.0 mi WNW 3.5 mph - N/A   Clear
1:36 AM 53.6 °F 46.4 °F 77% 30.04 in 10.0 mi Calm Calm - N/A   Clear
1:56 AM 53.6 °F 46.4 °F 77% 30.04 in 10.0 mi WNW 3.5 mph - N/A   Clear
2:15 AM 53.6 °F 46.4 °F 77% 30.04 in 10.0 mi WNW 3.5 mph - N/A   Clear
2:36 AM 53.6 °F 46.4 °F 77% 30.04 in 10.0 mi Calm Calm - N/A   Clear
2:56 AM 51.8 °F 44.6 °F 76% 30.04 in 10.0 mi NW 4.6 mph - N/A   Clear
3:15 AM 51.8 °F 44.6 °F 76% 30.04 in 10.0 mi NW 3.5 mph - N/A   Clear
3:36 AM 50.0 °F 44.6 °F 82% 30.04 in 10.0 mi NNW 3.5 mph - N/A   Clear
3:56 AM 51.8 °F 44.6 °F 76% 30.04 in 10.0 mi NW 3.5 mph - N/A   Clear
4:15 AM 51.8 °F 44.6 °F 76% 30.04 in 10.0 mi Calm Calm - N/A   Clear
4:36 AM 50.0 °F 42.8 °F 76% 30.04 in 10.0 mi Calm Calm - N/A   Clear
4:56 AM 48.2 °F 42.8 °F 82% 30.05 in 10.0 mi NW 6.9 mph - N/A   Clear
5:15 AM 50.0 °F 42.8 °F 76% 30.05 in 10.0 mi WNW 4.6 mph - N/A   Clear
5:36 AM 48.2 °F 42.8 °F 82% 30.05 in 10.0 mi WSW 3.5 mph - N/A   Clear
5:56 AM 50.0 °F 42.8 °F 76% 30.05 in 10.0 mi Calm Calm - N/A   Clear
6:15 AM 48.2 °F 42.8 °F 82% 30.05 in 10.0 mi Calm Calm - N/A   Clear
6:36 AM 48.2 °F 42.8 °F 82% 30.06 in 10.0 mi Calm Calm - N/A   Clear
6:56 AM 50.0 °F 44.6 °F 82% 30.06 in 10.0 mi Calm Calm - N/A   Clear
7:16 AM 51.8 °F 44.6 °F 76% 30.07 in 10.0 mi Calm Calm - N/A   Clear
7:35 AM 53.6 °F 44.6 °F 72% 30.07 in 10.0 mi Calm Calm - N/A   Clear
7:56 AM 55.4 °F 46.4 °F 72% 30.07 in 10.0 mi Calm Calm - N/A   Clear
8:16 AM 55.4 °F 44.6 °F 67% 30.07 in 10.0 mi Calm Calm - N/A   Clear
8:35 AM 55.4 °F 46.4 °F 72% 30.07 in 10.0 mi Calm Calm - N/A   Clear
8:56 AM 55.4 °F 44.6 °F 67% 30.07 in 10.0 mi Calm Calm - N/A   Clear
9:16 AM 59.0 °F 46.4 °F 63% 30.07 in 10.0 mi Calm Calm - N/A   Clear
9:35 AM 59.0 °F 46.4 °F 63% 30.07 in 10.0 mi Calm Calm - N/A   Clear
9:56 AM 60.8 °F 48.2 °F 63% 30.07 in 10.0 mi Calm Calm - N/A   Clear
10:16 AM 62.6 °F 46.4 °F 55% 30.06 in 10.0 mi Calm Calm - N/A   Clear
10:35 AM 62.6 °F 48.2 °F 59% 30.06 in 10.0 mi Calm Calm - N/A   Clear
10:56 AM 66.2 °F 50.0 °F 56% 30.06 in 10.0 mi Calm Calm - N/A   Clear
11:16 AM 69.8 °F 50.0 °F 49% 30.05 in 10.0 mi Calm Calm - N/A   Clear
11:35 AM 69.8 °F 44.6 °F 40% 30.05 in 10.0 mi NW 4.6 mph - N/A   Clear
11:56 AM 69.8 °F 44.6 °F 40% 30.05 in 10.0 mi NNW 5.8 mph - N/A   Clear
12:16 PM 71.6 °F 44.6 °F 38% 30.04 in 10.0 mi Calm Calm - N/A   Clear
12:35 PM 73.4 °F 42.8 °F 33% 30.04 in 10.0 mi NE 3.5 mph - N/A   Clear
12:56 PM 73.4 °F 42.8 °F 33% 30.03 in 10.0 mi NE 3.5 mph - N/A   Clear
1:16 PM 73.4 °F 41.0 °F 31% 30.03 in 10.0 mi ENE 4.6 mph - N/A   Clear
1:36 PM 73.4 °F 37.4 °F 27% 30.02 in 10.0 mi ENE 3.5 mph - N/A   Clear
1:56 PM 77.0 °F 37.4 °F 24% 30.02 in 10.0 mi NE 4.6 mph - N/A   Clear
2:15 PM 77.0 °F 33.8 °F 21% 30.01 in 10.0 mi ENE 5.8 mph - N/A   Clear
2:36 PM 77.0 °F 33.8 °F 21% 30.01 in 10.0 mi Calm Calm - N/A   Clear
2:56 PM 77.0 °F 35.6 °F 22% 30.00 in 10.0 mi ENE 3.5 mph - N/A   Clear
3:16 PM 75.2 °F 35.6 °F 24% 30.00 in 10.0 mi ESE 4.6 mph - N/A   Clear
3:36 PM 73.4 °F 35.6 °F 25% 29.99 in 10.0 mi Calm Calm - N/A   Mostly Cloudy
3:56 PM 73.4 °F 37.4 °F 27% 29.99 in 10.0 mi NE 3.5 mph - N/A   Overcast
4:16 PM 77.0 °F 37.4 °F 24% 29.98 in 10.0 mi ENE 3.5 mph - N/A   Mostly Cloudy
4:36 PM 77.0 °F 37.4 °F 24% 29.98 in 10.0 mi SE 4.6 mph - N/A   Scattered Clouds
4:56 PM 73.4 °F 41.0 °F 31% 29.98 in 10.0 mi ESE 4.6 mph - N/A   Scattered Clouds
5:16 PM 75.2 °F 39.2 °F 27% 29.98 in 10.0 mi ESE 4.6 mph - N/A   Mostly Cloudy
5:36 PM 77.0 °F 37.4 °F 24% 29.97 in 10.0 mi ENE 6.9 mph - N/A   Overcast
5:56 PM 77.0 °F 39.2 °F 26% 29.98 in 10.0 mi Calm Calm - N/A   Mostly Cloudy
6:16 PM 77.0 °F 41.0 °F 28% 29.97 in 10.0 mi NNE 4.6 mph - N/A   Scattered Clouds
6:36 PM 77.0 °F 37.4 °F 24% 29.97 in 10.0 mi Calm Calm - N/A   Scattered Clouds
6:56 PM 75.2 °F 37.4 °F 25% 29.97 in 10.0 mi North 3.5 mph - N/A   Scattered Clouds
7:16 PM 75.2 °F 35.6 °F 24% 29.97 in 10.0 mi Calm Calm - N/A   Scattered Clouds
7:36 PM 73.4 °F 35.6 °F 25% 29.97 in 10.0 mi Calm Calm - N/A   Clear
7:56 PM 73.4 °F 39.2 °F 29% 29.97 in 10.0 mi Calm Calm - N/A   Clear
8:16 PM 71.6 °F 41.0 °F 33% 29.97 in 10.0 mi Calm Calm - N/A   Clear
8:36 PM 69.8 °F 44.6 °F 40% 29.98 in 10.0 mi Calm Calm - N/A   Clear
8:56 PM 62.6 °F 44.6 °F 52% 29.98 in 10.0 mi Calm Calm - N/A   Clear
9:16 PM 62.6 °F 48.2 °F 59% 29.99 in 10.0 mi Calm Calm - N/A   Clear
9:36 PM 62.6 °F 46.4 °F 55% 29.99 in 10.0 mi Calm Calm - N/A   Clear
9:56 PM 60.8 °F 44.6 °F 55% 29.99 in 10.0 mi Calm Calm - N/A   Clear
10:16 PM 60.8 °F 46.4 °F 59% 29.99 in 10.0 mi Calm Calm - N/A   Clear
10:36 PM 59.0 °F 46.4 °F 63% 29.99 in 10.0 mi Calm Calm - N/A   Clear
10:56 PM 59.0 °F 46.4 °F 63% 29.99 in 10.0 mi Calm Calm - N/A   Clear
11:16 PM 59.0 °F 48.2 °F 67% 29.99 in 10.0 mi Calm Calm - N/A   Clear
11:36 PM 59.0 °F 48.2 °F 67% 29.99 in 10.0 mi Calm Calm - N/A   Clear
11:56 PM 55.4 °F 46.4 °F 72% 29.99 in 10.0 mi Calm Calm - N/A   Clear